Current weather by "City, St" or "zip code"  
 

Current Conditions: MAYFIELD

Mostly Cloudy


73.4 F

Last Updated on Jun 17 2024, 10:55 PM CDT
Humidity: 94%
Wind Speed: 3.4 mph
Barometer 30.06 in
Dewpoint: 71.6 F
Visibility: 10.00 mi
Precip: --
Heat Index: 74.8 F
Wind Chill: NA
Current conditions at:

MAYFIELD (KM25)

Lat: 36.76 Lon: 88.58

active severe weather and emergency alerts image image weather storm and storm spotter reports image weather observation monitoring service image
Active
Alerts
Storm Reports Obs
Monitoring

Sign-up For Email & Text Message Weather Alert Notification Services



Advertise Here

Observation History for MAYFIELD


Time Wind
(mph)
Vis
(mi)
Weather Precip (in) Temperature (F) Relative
Humidity
Wind
Chill
(F)
Heat
Index
(F)
Pressure
Air Dwpt altimeter
(in)
sea level
(mb)
Rmks
10:55 PM CDT 3.4 10.00 Mostly Cloudy -- 73.4 71.6 94% NA 74.8 30.06 1018.0
10:35 PM CDT 3.4 10.00 Mostly Cloudy -- 73.4 71.6 94% NA 74.8 30.06 1018.0
09:55 PM CDT 0.0 10.00 Partly Cloudy -- 73.4 71.6 94% NA 74.8 30.05 1017.6
09:35 PM CDT 0.0 7.00 Partly Cloudy -- 73.4 71.6 94% NA 74.8 30.05 1017.6
09:15 PM CDT 3.4 10.00 Mostly Cloudy -- 73.4 71.6 94% NA 74.8 30.05 1017.6
08:55 PM CDT 4.7 10.00 Partly Cloudy -- 73.4 71.6 94% NA 74.8 30.04 1017.3
07:35 PM CDT S 5.8 10.00 Clear -- 75.2 73.4 94% NA 76.8 30.01 1016.3
06:55 PM CDT S 5.8 10.00 Partly Cloudy -- 75.2 73.4 94% NA 76.8 30.04 1017.3
05:55 PM CDT 0.0 10.00 Partly Cloudy -- 75.2 73.4 94% NA 76.8 30.02 1016.6
05:35 PM CDT 0.0 10.00 Partly Cloudy -- 73.4 73.4 100% NA 75.2 30.02 1016.6
04:15 PM CDT SE 3.4 0.75 Cloudy -- 71.6 71.6 100% NA 73.2 30.07 1018.3
03:55 PM CDT SW 8.1 1.25 Cloudy -- NULL 69.8 % NA NA 30.02 1016.6
03:15 PM CDT W 5.8 7.00 Cloudy -- 80.6 75.2 84% NA 86.2 30.05 1017.6
02:55 PM CDT SW 4.7 10.00 Cloudy -- 82.4 73.4 74% NA 88.3 30.04 1017.3
02:35 PM CDT 5.8 10.00 Cloudy -- 82.4 73.4 74% NA 88.3 30.05 1017.6
02:15 PM CDT 10.00 Mostly Cloudy -- NULL % NA NA M
01:35 PM CDT 5.8 10.00 Partly Cloudy -- 86.0 73.4 66% NA 93.4 30.05 1017.6
01:15 PM CDT 8.1 10.00 Partly Cloudy -- 86.0 73.4 66% NA 93.4 30.04 1017.3
11:35 AM CDT 9.2 10.00 Mostly Cloudy -- 86.0 73.4 66% NA 93.4 30.07 1018.3
11:15 AM CDT 6.9 10.00 Mostly Cloudy -- 86.0 73.4 66% NA 93.4 30.06 1018.0
08:35 AM CDT 9.2 10.00 Clear -- 82.4 73.4 74% NA 88.3 30.05 1017.6
07:55 AM CDT S 10.3 10.00 Clear -- 80.6 73.4 79% NA 85.3 30.04 1017.3
07:15 AM CDT 5.8 10.00 Clear -- 80.6 73.4 79% NA 85.3 30.04 1017.3
06:35 AM CDT S 5.8 10.00 Clear -- 78.8 73.4 84% NA 82.0 30.03 1016.9

Regional Weather Observation


MAYFIELD (KM25)

Mostly Cloudy
73.4 F

MURRAY KYLE-OAK (KCEY)

Cloudy
71.6 F

CAIRO (KCIR)

Clear
74.7 F

UNION CITY (KUCY)

Clear
73.4 F

PARIS HENRY CTY (KPHT)

Partly Cloudy
82.4 F

CAPE GIRARDEAU (KCGI)

Partly Cloudy
73.9 F

Advertise Here


Advertise Here